Location: Burzi?i
(45.0869°N, 16.0577°E)
Time: 12:06:37
(UTC+00:00)

Okean-O - Pass Details

Date: 29 October 2020
Orbit: 638 x 641 km, 98.2° (Epoch: 28 November)

Event Time Altitude Azimuth Distance (km) Brightness Sun altitude
Rises 17:57:58 0° 185° (S) 2,933 6.0 -23.5°
Reaches altitude 10° 18:00:17 10° 193° (SSW) 2,028 5.3 -23.9°
Maximum altitude 18:04:25 38° 262° (W) 974 4.0 -24.7°
Drops below altitude 10° 18:08:35 10° 331° (NNW) 2,043 5.6 -25.4°
Sets 18:10:55 0° 340° (NNW) 2,956 6.4 -25.8°
